Location: Miles
(41.4492°N, 81.6087°W)
Time: 07:15:38
(UTC+00:00)

Transit 2A - Pass Details

Date: 15 September 2024
Orbit: 590 x 960 km, 66.7° (Epoch: 09 October)

Event Time Altitude Azimuth Distance (km) Brightness Sun altitude
Rises 06:30:36 0° 338° (NNW) 3,650 10.0 -43.0°
Reaches altitude 10° 06:35:06 10° 6° (N) 2,681 9.4 -42.7°
Maximum altitude 06:37:37 12° 30° (NNE) 2,482 9.2 -42.5°
Drops below altitude 10° 06:40:06 10° 54° (NE) 2,626 9.3 -42.3°
Sets 06:44:22 0° 83° (E) 3,496 9.8 -41.9°
